Location: Meanaryar
(48.4161°N, 4.7315°W)
Time: 00:37:17
(UTC+00:00)

IRS-1A Rocket - Pass Details

Date: 18 September 2020
Orbit: 851 x 931 km, 99.2° (Epoch: 31 October)

Event Time Altitude Azimuth Distance (km) Brightness Sun altitude
Exits shadow 19:46:51 - 158° (SSE) 3,063 6.7 -14.2°
Reaches altitude 10° 19:47:58 10° 158° (SSE) 2,631 6.4 -14.4°
Maximum altitude 19:53:52 81° 72° (ENE) 946 4.3 -15.3°
Drops below altitude 10° 19:59:45 10° 346° (NNW) 2,625 7.2 -16.2°
Sets 20:02:10 0° 346° (NNW) 3,562 8.0 -16.6°
